Hourly Weather Roundup
Issued by NWS Central Illinois

Home | Current Version | Previous Version | Text Only | Print | Product List | Glossary On
Versions: 1 2 3 4 5 6 7 8 9 10 11 12 13 14 15 16 17 18 19 20 21 22 23 24 25 26 27 28 29 30 31 32 33 34 35 36 37 38 39 40 41 42 43 44 45 46 47 48 49 50
000
NZUS43 KILX 010410
HWRILX

AREA WEATHER ROUNDUP
NATIONAL WEATHER SERVICE, LINCOLN IL
1000 PM CST SAT FEB 28 2015


CITY           SKY/WX    TMP DP  RH WIND       PRES   REMARKS
BLOOMINGTON    LGT SNOW  20  18  92 SE6       30.46F FOG     WCI  12
CHAMPAIGN      LGT SNOW  21  19  92 E9        30.46F VSB 3/4 WCI  11
DECATUR        LGT SNOW  22  19  89 E7        30.46F VSB 1   WCI  13
FLORA          LGT SNOW  25  24  96 CALM      30.47F VSB 1
GALESBURG      FLURRIES  18  17  93 CALM      30.45S
JACKSONVILLE   LGT SNOW  24  21  89 E6        30.46S VSB 1   WCI  16
LACON          LGT SNOW  19  16  87 SE3       30.47F
LAWRENCEVILLE  LGT SNOW  27  25  92 E7        30.48F VSB 3/4 WCI  19
LITCHFIELD     LGT SNOW  22  20  90 SE7       30.45S WCI  14
$$


CITY           SKY/WX    TMP DP  RH WIND       PRES   REMARKS
LINCOLN        LGT SNOW  22  20  91 SE3       30.49F
MACOMB         LGT SNOW  20  19  94 SE7       30.47F WCI  11
MATTOON        LGT SNOW  22  20  92 SE7       30.44F VSB 1   WCI  13
MT CARMEL AP   LGT SNOW  30  28  93 CALM      30.48S
OLNEY-NOBLE AP LGT SNOW  27  25  93 E3        30.48S VSB 3/4
PARIS          LGT SNOW  22  21  95 CALM      30.47F
PEORIA         LGT SNOW  21  16  81 SE7       30.47F WCI  12
PONTIAC        FLURRIES  20  18  93 E7        30.49F WCI  11
RANTOUL        LGT SNOW  23  20  91 E7        30.46F WCI  14
ROBINSON       LGT SNOW  26  25  96 E6        30.49F VSB 1   WCI  19
SPRINGFIELD    LGT SNOW  22  19  89 E5        30.46F FOG     WCI  16
TAYLORVILLE    LGT SNOW  21  19  93 E5        30.46F WCI  15
$$

...REGIONAL REPORTS...


CITY           SKY/WX    TMP DP  RH WIND       PRES   REMARKS
CHICAGO O`HARE LGT SNOW  17  14  88 S7        30.49F FOG     WCI   8
KANKAKEE       FLURRIES  19  17  91 SE8       30.49F WCI   9
MOLINE         PTCLDY     9   5  84 E3        30.46F FOG
MOUNT VERNON   CLOUDY    27  21  80 E3        30.46F
PITTSFIELD     LGT SNOW  22  20  91 E5        30.45S WCI  16
QUINCY         LGT SNOW  20  18  92 SE5       30.44S FOG     WCI  13
ROCKFORD       FLURRIES  14  10  84 SE3       30.49F
$$


CITY           SKY/WX    TMP DP  RH WIND       PRES   REMARKS
BURLINGTON     CLOUDY    18  16  92 SE5       30.44F FOG     WCI  11
CEDAR RAPIDS   FAIR       9   7  92 SE7       30.41F WCI  -2
DES MOINES     FLURRIES  21  17  84 SE6       30.40R WCI  13
KIRKSVILLE     LGT SNOW  20  18  92 E5        30.42S FOG     WCI  13
OTTUMWA        PTCLDY    10   8  92 SE5       30.42S WCI   2
ST LOUIS       LGT SNOW  25  22  88 E5        30.45F VSB 3/4 WCI  19
$$


CITY           SKY/WX    TMP DP  RH WIND       PRES   REMARKS
TERRE HAUTE    SNOW      24  22  91 SE7       30.48F VSB 1/2 WCI  16
EVANSVILLE     CLOUDY    32  20  61 NE9       30.49S WCI  24
INDIANAPOLIS   LGT SNOW  21  18  88 E8        30.48F VSB 1   WCI  11
LAFAYETTE      LGT SNOW  20  18  92 E8        30.50F VSB 1   WCI  10
MADISON        CLOUDY    14   3  61 S8        30.45S WCI   3
MILWAUKEE      LGT SNOW  18   8  65 SW9       30.49S WCI   7
$$




USA.gov is the U.S. government's official web portal to all federal, state and local government web resources and services.